Flag for Portugal Weather past 2 weeks in Setúbal, Portugal

Now
70 °F

Partly sunny.


Feels Like: 70 °F
Forecast: 65 / 83 °F
Wind: 6 mph from North

Location: Lisbon Portela Airport

Current Time: Jul 4, 2015 at 9:57:05 AM

Latest Report: Jul 4, 2015 at 9:30 AM


Visibility: N/A

Pressure: 30.15 "Hg

Humidity: 83%

Dew point: 64 °F

Location of SetúbalLocation

Historic Weather in Setúbal — Graph

°F

Setúbal temperature yesterday

Maximum temperature yesterday: 81 °F (at 3:00 PM)
Minimum temperature yesterday: 59 °F (at 5:30 AM)
Average temperature yesterday: 69 °F

Past Weeks' High & Low Weather Summary

 TemperatureHumidityPressure
High95 °F (Jun 27, 3:00 PM)94% (Jun 22, 12:30 AM)30.18 "Hg (Jun 22, 12:30 AM)
Low59 °F (Jun 24, 5:00 AM)15% (Jun 29, 5:30 PM)29.95 "Hg (Jun 20, 2:30 AM)
Average72 °F61%30.06 "Hg
* Reported Jun 19 8:00 AM — Jul 4 8:30 AM, Setúbal, Weather by CustomWeather, © 2015

Note: Actual official high and low records may vary slightly from our data, if they occured in-between our weather recording intervals... More about our weather records

Advertising

Setúbal weather history for previous 24 hours

 ConditionsComfort  
Time TempWeatherWind HumidityBarometerVisibility
8:30 AM
Sat, Jul 4
68 °FPartly sunny.8 mph83%30.15 "HgN/A
8:00 AM66 °FPartly sunny.8 mph88%30.15 "HgN/A
7:30 AM66 °FPartly sunny.10 mph88%30.15 "HgN/A
7:00 AM66 °FPassing clouds.8 mph88%30.15 "HgN/A
6:30 AM66 °FPassing clouds.5 mph88%30.15 "HgN/A
6:00 AM64 °FPassing clouds.1 mph94%30.15 "HgN/A
5:30 AM64 °FPassing clouds.1 mph88%30.12 "HgN/A
5:00 AM64 °FPassing clouds.3 mph94%30.15 "HgN/A
4:30 AM66 °FPassing clouds.6 mph88%30.15 "HgN/A
4:00 AM66 °FPassing clouds.8 mph88%30.15 "HgN/A
3:30 AM66 °FPassing clouds.8 mph88%30.12 "HgN/A
3:00 AM66 °FPassing clouds.10 mph88%30.15 "HgN/A
2:30 AM66 °FPassing clouds.10 mph88%30.15 "HgN/A
2:00 AM66 °FClear.12 mph83%30.15 "Hg10 mi
1:30 AM66 °FPassing clouds.5 mph83%30.15 "HgN/A
1:00 AM66 °FClear.6 mph83%30.18 "Hg10 mi
12:30 AM66 °FClear.9 mph83%30.18 "Hg10 mi
12:00 AM66 °FClear.12 mph83%30.15 "Hg10 mi
11:30 PM
Fri, Jul 3
66 °FClear.6 mph78%30.15 "Hg10 mi
11:00 PM66 °FPassing clouds.6 mph78%30.18 "HgN/A
10:30 PM66 °FClear.8 mph78%30.15 "Hg10 mi
10:00 PM68 °FPassing clouds.7 mph64%30.15 "HgN/A
9:30 PM68 °FSunny.9 mph64%30.15 "Hg10 mi
9:00 PM70 °FPassing clouds.9 mph60%30.15 "HgN/A
8:30 PM72 °FPassing clouds.9 mph53%30.15 "HgN/A
8:00 PM72 °FPassing clouds.9 mph50%30.12 "HgN/A
7:30 PM72 °FPassing clouds.10 mph53%30.12 "HgN/A
7:00 PM73 °FPassing clouds.10 mph50%30.12 "HgN/A
6:30 PM75 °FSunny.13 mph41%30.12 "Hg10 mi
6:00 PM75 °FSunny.14 mph44%30.12 "Hg10 mi
5:30 PM75 °FPassing clouds.12 mph41%30.12 "HgN/A
5:00 PM77 °FPassing clouds.12 mph34%30.12 "HgN/A
4:30 PM79 °FPassing clouds.12 mph32%30.09 "HgN/A
4:00 PM81 °FPassing clouds.10 mph26%30.09 "HgN/A
3:30 PM81 °FPassing clouds.10 mph30%30.09 "HgN/A
3:00 PM81 °FPassing clouds.12 mph30%30.09 "HgN/A
2:30 PM79 °FSunny.12 mph34%30.09 "Hg10 mi
2:00 PM79 °FPassing clouds.10 mph39%30.09 "HgN/A
1:30 PM79 °FPassing clouds.10 mph39%30.12 "HgN/A
1:00 PM77 °FPassing clouds.9 mph47%30.12 "HgN/A
12:30 PM77 °FSunny.5 mph39%30.12 "Hg10 mi
12:00 PM75 °FSunny.8 mph47%30.12 "Hg10 mi
11:30 AM72 °FPassing clouds.7 mph57%30.12 "HgN/A
11:00 AM70 °FPassing clouds.7 mph64%30.12 "HgN/A
10:30 AM72 °FSunny.2 mph50%30.09 "Hg10 mi
10:00 AM70 °FSunny.3 mph53%30.09 "Hg10 mi
9:30 AM68 °FSunny.2 mph64%30.09 "Hg10 mi
9:00 AM66 °FPassing clouds.3 mph68%30.09 "HgN/A
Weather by CustomWeather, © 2015

See weather overviewHow to use our weather pages